Weather reports worldwide

Advertisment
P11-B, Netherlands (6203): temperature & dewpoint: 25.09.2020 00:00:00 - 01.10.2020 00:00:00 (CEST)P11-B, Netherlands (6203): wind speed & gusts: 25.09.2020 00:00:00 - 01.10.2020 00:00:00 (CEST)P11-B, Netherlands (6203): wind direction: 25.09.2020 00:00:00 - 01.10.2020 00:00:00 (CEST)P11-B, Netherlands (6203): reduced air pressure: 25.09.2020 00:00:00 - 01.10.2020 00:00:00 (CEST)P11-B, Netherlands (6203): visibility: 25.09.2020 00:00:00 - 01.10.2020 00:00:00 (CEST)
Date & Time tt [°C] td [°C] ff [km/h] ff [kn] fx [km/h] fx [kn] dd ppp [hPa] vv [km]
01.10.2020 00:00:00 18,0 14,0 52 28 - - S - 10
30.09.2020 23:00:00 17,3 14,4 48 26 50 27 SSE 1005,0 10
30.09.2020 22:00:00 17,2 14,1 48 26 47 25 S 1005,7 10
30.09.2020 21:00:00 16,6 13,5 48 26 50 27 SSE 1006,5 10
30.09.2020 20:00:00 17,4 14,8 42 23 54 29 SSE 1006,5 10
30.09.2020 19:00:00 17,4 15,0 44 24 43 23 S 1007,2 10
30.09.2020 18:00:00 17,0 15,0 41 22 43 23 S 1007,6 9
30.09.2020 17:00:00 16,9 14,2 41 22 43 23 S 1008,4 10
30.09.2020 16:00:00 16,6 14,1 41 22 43 23 S 1008,7 9
30.09.2020 15:00:00 16,5 14,3 44 24 43 23 S 1009,3 9
30.09.2020 14:00:00 16,2 13,8 39 21 40 21 S 1010,1 10
30.09.2020 13:00:00 16,2 13,4 44 24 43 23 S 1010,5 10
30.09.2020 12:00:00 16,1 14,1 42 23 43 23 S 1010,9 10
30.09.2020 11:00:00 16,0 13,8 - - - - - 1011,8 -
30.09.2020 10:00:00 - - - - - - - - -
30.09.2020 09:00:00 16,0 10,8 32 18 43 23 SW 1012,2 12
30.09.2020 08:00:00 16,0 10,0 39 21 40 21 SW 1012,2 10
30.09.2020 07:00:00 16,0 11,3 31 17 32 18 SW 1012,4 10
30.09.2020 06:00:00 15,7 12,8 18 10 29 16 SW 1012,8 9
30.09.2020 05:00:00 15,6 12,0 26 14 29 16 SW 1013,4 10
30.09.2020 04:00:00 15,1 12,3 26 14 29 16 SW 1013,9 9
30.09.2020 03:00:00 14,9 11,9 28 15 29 16 SW 1014,2 10
30.09.2020 02:00:00 14,9 12,5 28 15 32 18 WSW 1014,4 5
30.09.2020 01:00:00 15,3 11,7 34 18 36 19 WSW 1014,5 6
30.09.2020 00:00:00 15,3 12,6 35 19 40 21 WSW 1014,6 6
29.09.2020 23:00:00 15,7 13,9 35 19 36 19 SW 1014,5 9
29.09.2020 22:00:00 16,3 13,7 34 18 40 21 SW 1014,3 7
29.09.2020 21:00:00 17,1 15,5 25 14 32 18 S 1014,0 11
29.09.2020 20:00:00 16,9 15,0 24 13 29 16 S 1014,5 9
29.09.2020 19:00:00 15,0 14,0 16 9 25 14 SSE 1015,0 3,7
29.09.2020 18:00:00 15,6 12,8 18 10 22 12 S 1014,9 9
29.09.2020 17:00:00 15,9 12,1 13 7 18 10 S 1015,1 10
29.09.2020 16:00:00 15,9 11,9 13 7 14 8 - 1015,3 10
29.09.2020 15:00:00 15,9 12,0 7 4 14 8 SSW 1015,7 11
29.09.2020 14:00:00 15,8 12,0 7 4 11 6 SW 1015,9 10
29.09.2020 13:00:00 15,4 11,9 4 2 7 4 - 1015,8 10
29.09.2020 12:00:00 15,4 11,9 5 3 11 6 - 1015,9 10
29.09.2020 11:00:00 15,7 11,4 8 4 14 8 NW 1015,7 10
29.09.2020 10:00:00 15,9 10,9 8 4 14 8 NW 1015,3 10
29.09.2020 09:00:00 15,7 10,3 8 4 14 8 NW 1014,7 10
29.09.2020 08:00:00 15,1 10,0 9 5 18 10 NW 1014,2 10
29.09.2020 07:00:00 15,3 9,8 13 7 18 10 NW 1013,8 10
29.09.2020 06:00:00 15,0 7,9 11 6 22 12 NW 1013,6 12
29.09.2020 05:00:00 14,9 7,9 11 6 22 12 WNW 1013,4 12
29.09.2020 04:00:00 14,9 8,5 15 8 22 12 WNW 1013,3 10
29.09.2020 03:00:00 14,9 8,6 16 9 22 12 WNW 1012,9 8
29.09.2020 02:00:00 15,0 9,0 16 9 22 12 WNW 1012,7 10
29.09.2020 01:00:00 15,3 10,4 18 10 25 14 NW 1012,9 10
29.09.2020 00:00:00 15,0 10,8 24 13 29 16 NW 1012,7 10
28.09.2020 23:00:00 14,5 12,3 24 13 32 18 NW 1012,6 8
28.09.2020 22:00:00 14,6 13,0 28 15 32 18 NW 1012,2 2,8
28.09.2020 21:00:00 14,5 13,3 28 15 36 19 NW 1011,7 5
28.09.2020 20:00:00 15,0 13,6 28 15 36 19 NW 1011,2 5
28.09.2020 19:00:00 15,5 14,0 26 14 32 18 NW 1010,5 8
28.09.2020 18:00:00 15,3 14,0 28 15 36 19 NNW 1009,9 9
28.09.2020 17:00:00 15,4 14,3 34 18 43 23 NW 1009,6 4,8
28.09.2020 16:00:00 15,3 14,4 37 20 43 23 NW 1009,3 5
28.09.2020 15:00:00 16,0 14,6 35 19 36 19 NNW 1009,3 5
28.09.2020 14:00:00 16,2 14,8 31 17 36 19 NNW 1009,2 8
28.09.2020 13:00:00 17,0 15,0 28 15 32 18 NNW 1009,2 10
28.09.2020 12:00:00 16,5 14,8 28 15 36 19 NNW 1008,9 10
28.09.2020 11:00:00 16,4 15,2 29 16 40 21 NNW 1008,7 13
28.09.2020 10:00:00 16,3 15,2 31 17 40 21 N 1008,4 9
28.09.2020 09:00:00 16,5 15,1 37 20 40 21 NNW 1008,2 10
28.09.2020 08:00:00 16,2 14,9 34 18 43 23 N 1008,0 10
28.09.2020 07:00:00 16,4 15,0 35 19 40 21 NNW 1007,8 10
28.09.2020 06:00:00 16,6 15,3 35 19 40 21 NNW 1007,8 9
28.09.2020 05:00:00 16,7 15,5 31 17 36 19 N 1007,8 9
28.09.2020 04:00:00 16,8 15,7 26 14 29 16 N 1008,1 8
28.09.2020 03:00:00 16,7 15,8 26 14 32 18 N 1008,1 5
28.09.2020 02:00:00 16,7 16,0 22 12 29 16 N 1008,3 7
28.09.2020 01:00:00 15,9 15,5 5 3 7 4 NNE 1008,6 2,9
28.09.2020 00:00:00 15,9 15,4 8 4 18 10 ENE 1008,6 6
27.09.2020 23:00:00 16,3 15,9 21 11 40 21 N 1008,3 4,2
27.09.2020 22:00:00 16,4 15,9 31 17 40 21 N 1007,6 3,3
27.09.2020 21:00:00 16,4 15,8 28 15 36 19 N 1007,3 6
27.09.2020 20:00:00 16,5 15,6 29 16 40 21 N 1007,0 10
27.09.2020 19:00:00 16,4 15,7 29 16 43 23 N 1006,8 6
27.09.2020 18:00:00 16,6 15,5 34 18 43 23 N 1006,4 5
27.09.2020 17:00:00 16,7 15,7 34 18 40 21 N 1006,3 10
27.09.2020 16:00:00 16,8 15,9 35 19 40 21 N 1005,8 9
27.09.2020 15:00:00 17,3 15,8 28 15 36 19 N 1005,6 10
27.09.2020 14:00:00 17,2 15,8 22 12 47 25 N 1005,1 12
27.09.2020 13:00:00 16,9 15,6 31 17 43 23 N 1004,8 10
27.09.2020 12:00:00 16,5 15,3 37 20 47 25 N 1004,1 10
27.09.2020 11:00:00 16,4 15,0 34 18 58 31 - 1003,6 10
27.09.2020 10:00:00 16,0 14,5 44 24 61 33 N 1003,0 10
27.09.2020 09:00:00 15,8 14,3 44 24 65 35 - 1002,3 10
27.09.2020 08:00:00 15,3 14,0 44 24 68 37 N 1001,6 5
27.09.2020 07:00:00 15,1 13,7 57 31 72 39 N 1001,2 6
27.09.2020 06:00:00 15,0 12,5 57 31 72 39 N 1000,9 7
27.09.2020 05:00:00 14,8 12,7 50 27 79 43 N 1001,0 7
27.09.2020 04:00:00 14,7 12,0 65 35 76 41 N 1001,4 8
27.09.2020 03:00:00 15,2 11,0 68 37 79 43 N 1001,0 10
27.09.2020 02:00:00 14,6 11,4 72 39 79 43 NNW 1001,6 10
27.09.2020 01:00:00 14,4 10,1 67 36 76 41 NNW 1002,4 9
27.09.2020 00:00:00 14,7 9,9 67 36 76 41 NNW 1002,8 10
26.09.2020 23:00:00 15,1 10,5 65 35 76 41 N 1003,4 10
26.09.2020 22:00:00 14,8 11,2 61 33 68 37 N 1003,4 10
26.09.2020 21:00:00 15,5 10,1 46 25 58 31 N 1003,3 10
26.09.2020 20:00:00 13,9 11,5 37 20 47 25 N 1003,4 10
26.09.2020 19:00:00 15,6 12,3 29 16 47 25 - 1002,5 10
26.09.2020 18:00:00 15,2 11,9 37 20 58 31 NNW 1001,4 4,6
26.09.2020 17:00:00 14,6 11,3 32 18 54 29 N 1002,2 16
26.09.2020 16:00:00 15,9 9,4 21 11 32 18 - 1002,0 10
26.09.2020 15:00:00 15,7 9,0 13 7 25 14 - 1001,9 10
26.09.2020 14:00:00 15,3 9,6 15 8 29 16 NNE 1001,1 10
26.09.2020 13:00:00 14,7 10,0 24 13 36 19 NNE 1000,4 10
26.09.2020 12:00:00 14,1 11,1 26 14 58 31 NW 1000,1 10
26.09.2020 11:00:00 13,6 11,2 48 26 65 35 NW 999,9 5
26.09.2020 10:00:00 13,2 10,7 46 25 68 37 NNW 999,1 1,8
26.09.2020 09:00:00 13,0 9,0 52 28 72 39 NNW 999,3 4,5
26.09.2020 08:00:00 13,6 10,1 47 25 76 41 NNW 998,9 14
26.09.2020 07:00:00 13,3 10,1 57 31 72 39 NNW 998,5 10
26.09.2020 06:00:00 13,6 10,1 65 35 83 45 NNW 998,4 10
26.09.2020 05:00:00 14,3 10,9 50 27 68 37 NW 997,6 9
26.09.2020 04:00:00 12,8 8,5 29 16 54 29 NNE 997,0 9
26.09.2020 03:00:00 13,4 7,7 34 18 76 41 NNW 996,8 4,8
26.09.2020 02:00:00 13,8 10,0 48 26 65 35 NNW 996,0 5
26.09.2020 01:00:00 14,9 9,5 36 19 61 33 N 995,2 25
26.09.2020 00:00:00 13,6 11,1 50 27 68 37 NNW 994,0 10
25.09.2020 23:00:00 14,6 11,2 55 30 65 35 NNW 992,4 9
25.09.2020 22:00:00 13,7 11,4 54 29 83 45 WNW 991,5 7
25.09.2020 21:00:00 12,4 11,3 70 38 97 53 NW 991,3 8
25.09.2020 20:00:00 11,5 10,7 72 39 101 54 NW 990,2 4,9
25.09.2020 19:00:00 13,6 10,0 50 27 65 35 WNW 989,7 2,2
25.09.2020 18:00:00 14,2 10,8 40 21 65 35 WNW 989,1 8
25.09.2020 17:00:00 14,2 10,8 63 34 72 39 WNW 988,5 10
25.09.2020 16:00:00 13,9 9,9 48 26 68 37 WNW 987,9 10
25.09.2020 15:00:00 14,1 10,5 50 27 68 37 - 986,9 9
25.09.2020 14:00:00 12,8 11,5 50 27 83 45 W 987,5 4,9
25.09.2020 13:00:00 13,1 10,9 68 37 72 39 - 987,0 3,3
25.09.2020 12:00:00 13,2 9,9 68 37 90 49 W 987,0 10
25.09.2020 11:00:00 11,0 7,9 76 41 79 43 WSW 986,9 10
25.09.2020 10:00:00 11,8 7,7 59 32 61 33 WSW 989,9 6
25.09.2020 09:00:00 11,4 6,7 43 23 54 29 WSW 990,4 21
25.09.2020 08:00:00 12,0 7,3 48 26 54 29 WSW 990,7 10
25.09.2020 07:00:00 12,3 7,2 46 25 54 29 W 990,7 10
25.09.2020 06:00:00 12,5 8,0 44 24 50 27 WSW 990,6 10
25.09.2020 05:00:00 11,8 8,6 42 23 54 29 - 991,3 4,3
25.09.2020 04:00:00 12,0 8,2 54 29 61 33 WSW 991,4 10
25.09.2020 03:00:00 12,3 9,3 50 27 54 29 WSW 991,3 10
25.09.2020 02:00:00 12,6 7,4 25 14 40 21 SW 991,6 39
25.09.2020 01:00:00 12,5 9,9 22 12 25 14 SW 992,3 10
25.09.2020 00:00:00 12,5 10,1 4 2 14 8 - 993,2 8

tt = temperature
td = dewpoint
ff = wind speed
fx = gusts
dd = wind direction
ppp = reduced air pressure
vv = visibility

Next stations